Regional Weather Roundup
Issued by NWS Goodland, KS

Home | Current Version | Previous Version | Graphics & Text | Print | Product List | Glossary On
Versions: 1 2 3 4 5 6 7 8 9 10 11 12 13 14 15 16 17 18 19 20 21 22 23 24 25 26 27 28 29 30 31 32 33 34 35 36 37 38 39 40 41 42 43 44 45 46 47 48 49 50
000
ASUS43 KGLD 202359
RWRGLD

GOODLAND FORECAST AREA HOURLY WEATHER ROUNDUP
NATIONAL WEATHER SERVICE GOODLAND KS
500 PM MST MON FEB 20 2017

...OFFICIAL OBSERVATIONS...

CITY           SKY/WX    TMP DP  RH WIND       PRES   REMARKS
GOODLAND KS    CLEAR     59  11  15 N9        29.99R
HILL CITY KS   CLEAR     62  33  33 N12       29.97R
IMPERIAL NEB   CLEAR     58  19  22 N6        29.96S
MCCOOK NEB     CLEAR     60  26  27 NW10      29.95R
AKRON CO       CLEAR     59  14  17 W7        29.99R
BURLINGTON CO  CLEAR     60  13  15 N8        30.01R
LIMON CO       CLEAR     57  12  17 CALM      30.04R
$$

...UNOFFICIAL OBSERVATIONS...

CITY           SKY/WX    TMP DP  RH WIND       PRES   REMARKS
LENORA KS        N/A     61  32  33 NW10        N/A
NORTON KS      CLEAR     59  25  27 NW12      29.95R
SHARON SPRINGS   N/A     60  15  17 N10         N/A
TRENTON NEB      N/A     59  32  36 N7          N/A
KIT CARSON CO    N/A     61  17  18 MISG        N/A
YUMA CO        FAIR      57  16  19 CALM      29.97F
$$




USA.gov is the U.S. government's official web portal to all federal, state and local government web resources and services.